Time,TemperatureF,DewpointF,PressureIn,WindDirection,WindDirectionDegrees,WindSpeedMPH,WindSpeedGustMPH,Humidity,HourlyPrecipIn,Conditions,Clouds,dailyrainin,SoftwareType,DateUTC
2013-09-05 13:11:00,59.0,59.0,25.83,SW,219,0.0,2.0,100,0.00,,,0.00,,2013-09-05 20:11:00,
2013-09-05 13:22:00,59.0,59.0,25.83,SW,219,0.0,2.0,100,0.00,,,0.00,,2013-09-05 20:22:00,
2013-09-05 13:52:00,61.0,61.0,25.83,SW,219,0.0,1.0,100,0.00,,,0.00,,2013-09-05 20:52:00,
2013-09-05 14:21:00,61.0,61.0,25.83,North,2,2.0,3.0,99,0.00,,,0.00,,2013-09-05 21:21:00,
2013-09-05 14:53:00,60.0,60.0,25.83,NW,316,0.0,4.0,99,0.00,,,0.00,,2013-09-05 21:53:00,
2013-09-05 15:13:00,60.0,60.0,25.83,WSW,251,1.0,5.0,99,0.00,,,0.00,,2013-09-05 22:13:00,
2013-09-05 15:24:00,60.0,60.0,25.83,WSW,251,1.0,5.0,99,0.00,,,0.00,,2013-09-05 22:24:00,
2013-09-05 15:43:00,60.0,60.0,25.83,WNW,284,1.0,3.0,99,0.00,,,0.00,,2013-09-05 22:43:00,
2013-09-05 15:53:00,60.0,60.0,25.83,WNW,284,1.0,3.0,99,0.00,,,0.00,,2013-09-05 22:53:00,
2013-09-05 16:22:00,61.0,60.0,25.83,SSW,200,2.0,6.0,98,0.00,,,0.00,,2013-09-05 23:22:00,
2013-09-05 16:53:00,63.0,62.0,25.83,South,190,0.0,7.0,96,0.00,,,0.00,,2013-09-05 23:53:00,
2013-09-05 17:12:00,63.0,61.0,25.83,WSW,255,2.0,6.0,93,0.00,,,0.00,,2013-09-06 00:12:00,
2013-09-05 17:22:00,63.0,61.0,25.83,WSW,239,2.0,6.0,92,0.00,,,0.00,,2013-09-06 00:22:00,
2013-09-05 17:42:00,64.0,61.0,25.83,SSW,207,2.0,7.0,90,0.00,,,0.00,,2013-09-06 00:42:00,
2013-09-05 17:52:00,63.0,60.0,25.83,SSW,212,1.0,9.0,91,0.00,,,0.00,,2013-09-06 00:52:00,
2013-09-05 18:11:00,63.0,60.0,25.83,SSW,212,4.0,10.0,91,0.00,,,0.00,,2013-09-06 01:11:00,
2013-09-05 18:21:00,63.0,60.0,25.83,SSW,212,4.0,10.0,91,0.00,,,0.00,,2013-09-06 01:21:00,
2013-09-05 18:32:00,63.0,60.0,25.83,SSW,212,4.0,10.0,91,0.00,,,0.00,,2013-09-06 01:32:00,
2013-09-05 18:41:00,63.0,60.0,25.83,SSW,212,4.0,10.0,91,0.00,,,0.00,,2013-09-06 01:41:00,
2013-09-05 18:52:00,62.0,60.0,25.83,SW,221,2.0,5.0,94,0.00,,,0.00,,2013-09-06 01:52:00,
2013-09-05 19:11:00,61.0,60.0,25.83,SW,218,3.0,5.0,95,0.00,,,0.00,,2013-09-06 02:11:00,
2013-09-05 19:22:00,61.0,60.0,25.83,SW,218,3.0,5.0,95,0.00,,,0.00,,2013-09-06 02:22:00,
2013-09-05 19:32:00,61.0,60.0,25.83,SW,218,3.0,5.0,95,0.00,,,0.00,,2013-09-06 02:32:00,
2013-09-05 19:42:00,61.0,60.0,25.83,SW,218,3.0,5.0,95,0.00,,,0.00,,2013-09-06 02:42:00,